GAOFEN 12-2 (48079 NORAD) Tracking and Keplerian Element Data

This shows tracking and keplerian element data for the satellite.

Feedback or suggestion? Click here.




ElementValue
Catalog48079
NameGAOFEN 12-2
Epoch Orbit1238
Epoch Day173.55389832
Epoch Year2021
RAAN165.757
Inclination97.8661
Eccentricity0.0002052
Argument of Perigee66.2172
Mean Anonmoly293.9256
Mean Motion14.80269871
Decay Rate6E-08
L11 48079U 21026A 21173.55389832 .00000006 00000-0 74823-5 0 9991
L22 48079 97.8661 165.7570 0002052 66.2172 293.9256 14.80269871 12387

Live tracking and technical data element details for GAOFEN 12-2 (NORAD 48079). GAOFEN 12-2 can be tracked NOW for your location showing map with azimuth and elevation plus other details from your city location.

Track the satellite on the map from your city or location and see movement details for azimuth, elevation, latitude, longitude, range, height, and movement on the map or in text.







IsCatalogInMostPopularTable: catalog: 48079, numindb: 42
Update: records affected: 1



GetName: 48079 GAOFEN 12-2

Hit Count: updated at: Thu, 24 Jun 2021 02:14:46 GMT